Regional Weather Roundup
Issued by NWS Little Rock, AR

Home | Current Version | Previous Version | Text Only | Print | Product List | Glossary On
Versions: 1 2 3 4 5 6 7 8 9 10 11 12 13 14 15 16 17 18 19 20 21 22 23 24 25 26 27 28 29 30 31 32 33 34 35 36 37 38 39 40 41 42 43 44 45 46 47 48 49 50
786
ASUS44 KLZK 041105
RWRLZK

WEATHER ROUNDUP FOR ARKANSAS
NATIONAL WEATHER SERVICE LITTLE ROCK AR
500 AM CST SUN DEC 04 2016

NOTE: "FAIR" INDICATES FEW OR NO CLOUDS BELOW 12,000 FEET WITH NO
SIGNIFICANT WEATHER AND/OR OBSTRUCTIONS TO VISIBILITY.

ARZ001-003-010-029-041200-
NORTHWEST ARKANSAS

CITY           SKY/WX    TMP DP  RH WIND       PRES   REMARKS
FAYETTEVILLE   CLOUDY    42  42 100 N5        29.98S
FORT SMITH     CLOUDY    43  41  93 E6        30.00F
HARRISON       CLOUDY    38  38 100 SE8       29.98F FOG
BENTONVILLE    CLOUDY    41  36  81 SE3       30.00S
ROGERS         LGT RAIN  40  39  97 CALM      30.00S
SILOAM SPGS    CLOUDY    41  39  93 N3        29.99F
HIGHFILL       CLOUDY    41  40  96 CALM      29.99S FOG
$$

ARZ004-005-016-041200-
NORTH CENTRAL ARKANSAS

CITY           SKY/WX    TMP DP  RH WIND       PRES   REMARKS
BATESVILLE     CLOUDY    39  37  93 NE6       30.03F
FLIPPIN        CLOUDY    39  34  81 E5        29.98F
MTN HOME       CLOUDY    38  37  97 SE8       30.00F
$$

ARZ040-041-041200-
WEST CENTRAL ARKANSAS

CITY           SKY/WX    TMP DP  RH WIND       PRES   REMARKS
MENA           CLOUDY    45  43  93 E5        29.98S
MOUNT IDA      CLOUDY    44  42  93 VRB3      29.94F
$$

ARZ009-017-025-026-028-041200-
NORTHEAST ARKANSAS

CITY           SKY/WX    TMP DP  RH WIND       PRES   REMARKS
CORNING        MIX PCPN  39  39 100 NE10      30.05F
JONESBORO      CLOUDY    41  39  93 NE12      30.03F
NEWPORT        CLOUDY    41  40  96 NE10      30.03F
WALNUT RIDGE   CLOUDY    39  36  87 NE10      30.03F
BLYTHEVILLE    CLOUDY    42  39  89 E12       30.03F
$$

ARZ022-023-033-042-044-041200-
CENTRAL ARKANSAS

CITY           SKY/WX    TMP DP  RH WIND       PRES   REMARKS
LITTLE ROCK    CLOUDY    42  42 100 NE9       29.99F
JACKSONVILLE   CLOUDY    42  42  99 NE8       29.99F
SEARCY         CLOUDY    41  41 100 NE13      30.02F
HOT SPRINGS    CLOUDY    44  43  96 E7        29.97F
RUSSELLVILLE   CLOUDY    42  40  92 E5        29.99F
CLINTON        CLOUDY    41  41 100 CALM      30.01S
$$

ARZ036-041200-
EAST ARKANSAS

CITY           SKY/WX    TMP DP  RH WIND       PRES   REMARKS
WEST MEMPHIS   CLOUDY    42  42 100 E13       29.99F
$$

ARZ050-053-066-070-073-041200-
SOUTHWEST ARKANSAS

CITY           SKY/WX    TMP DP  RH WIND       PRES   REMARKS
ARKADELPHIA    CLOUDY    45  44  97 NE6       29.97F
CAMDEN         CLOUDY    46  41  81 NE5       29.95F
TEXARKANA      CLOUDY    46  46 100 N6        29.96F
EL DORADO      CLOUDY    46  45  96 N7        29.95R
DE QUEEN       CLOUDY    47  46  97 E7        29.96F
$$

ARZ056-057-069-041200-
SOUTHEAST ARKANSAS

CITY           SKY/WX    TMP DP  RH WIND       PRES   REMARKS
PINE BLUFF     CLOUDY    45  44  97 E7        29.96S
STUTTGART      CLOUDY    45  39  81 NE10      29.97F
MONTICELLO     CLOUDY    45  43  93 E12       29.93F

$$






USA.gov is the U.S. government's official web portal to all federal, state and local government web resources and services.